CZ-4B R/B - Orbit

View from above orbital plane
View from above orbital plane
View from above satellite
View from above satellite

Ground track
Ground track

The orbit data is extracted from the following two-line orbital elements,

1 29093U 06015B   13137.86018156  .00008275  00000-0  35302-3 0   196
2 29093 097.5592 211.9017 0102823 199.4706 253.2855 15.18420529389495
Epoch (UTC): 17 May 2013 20:38:39
Eccentricity: 0.0102823
inclination: 97.5592°
perigee height: 440 km
apogee height: 581 km
right ascension of ascending node: 211.9017°
argument of perigee: 199.4706°
revolutions per day: 15.18420529
mean anomaly at epoch: 253.2855°
orbit number at epoch: 38949

The dashed part of the orbit path shows where the satellite is in the earth's shadow,  

Developed and maintained by Chris Peat, Heavens-Above GmbH. Please read the updated FAQ before sending e-mail. Imprint. DLR